User: anonymous   Login
Location: Blue Mountain Vista Observatory
(40.6992°N, 75.9422°W)
Time: 23:29:30
(UTC-04:00)
Language:

Cosmos 1222 Rocket - Orbit

View from above orbital plane
View from above orbital plane
View from above satellite
View from above satellite

Ground track
Ground track

The orbit data is extracted from the following two-line orbital elements,

1 12072U 80093B   14297.45122896  .00053952  00000-0  56001-3 0  2624
2 12072 081.1809 166.6841 0008544 256.5615 103.4688 15.64379835866252
Epoch (UTC): 24 October 2014 10:49:46
Eccentricity: 0.0008544
inclination: 81.1809°
perigee height: 369 km
apogee height: 381 km
right ascension of ascending node: 166.6841°
argument of perigee: 256.5615°
revolutions per day: 15.64379835
mean anomaly at epoch: 103.4688°
orbit number at epoch: 86625

The dashed part of the orbit path shows where the satellite is in the earth's shadow,  

DLR